Simultaneous Nadir Overpasses (SNOs) Predictions

Prediction of SNOs between METOP-A and NOAA-19 Satellite Orbit:

Table of predicted SNOs for the next 14.0 days since TLE Epoch: 12/3/2012
Index Date (METOP-A) Time (METOP-A) METOP-A Lat,Lon Date (NOAA-19) Time (NOAA-19) NOAA-19 Lat,Lon Distance(km) Time Diff (sec)
1 12/10/2012 17:11:06 -73.47, 95.43 12/10/2012 17:09:53 -73.50, 94.51 29.23 73
2 12/10/2012 18:01:50 73.26, -97.71 12/10/2012 18:00:53 73.27, -97.74 1.94 57
3 12/10/2012 18:52:32 -73.25, 69.60 12/10/2012 18:51:53 -73.26, 69.54 1.81 39
4 12/10/2012 19:43:12 73.24,-123.10 12/10/2012 19:42:57 73.23,-123.16 2.37 15
5 12/10/2012 20:33:55 -73.18, 44.10 12/10/2012 20:33:57 -73.21, 44.12 3.55 2
6 12/10/2012 21:24:35 73.17,-148.59 12/10/2012 21:25:01 73.18,-148.58 1.60 26
7 12/10/2012 22:15:17 -73.16, 18.72 12/10/2012 22:16:01 -73.17, 18.70 0.93 44
8 12/10/2012 23:05:57 73.15,-173.97 12/10/2012 23:07:05 73.14,-174.00 1.59 68
9 12/10/2012 23:56:48 -72.69, -7.62 12/10/2012 23:57:57 -72.73, -5.85 58.55 69




NCC Satellite Simultaneous Nadir Overpasses (SNOs) Prediction Service
